Location: Shenandoah County Park
(38.9356°N, 78.4524°W)
Time: 10:08:43
(UTC-04:00)

Vanguard 1 Rocket - Pass Details

Date: 13 February 2023
Orbit: 652 x 4223 km, 34.3° (Epoch: 24 March)

Event Time Altitude Azimuth Distance (km) Brightness Sun altitude
Rises 15:06:09 0° 278° (W) 4,937 11.6 26.1°
Reaches altitude 10° 15:08:55 10° 273° (W) 4,301 11.5 25.7°
Maximum altitude 15:20:57 49° 203° (SSW) 3,442 11.5 24.1°
Drops below altitude 10° 15:42:10 10° 137° (SE) 7,197 12.0 21.0°
Sets 15:48:39 0° 133° (SE) 8,414 12.2 20.0°
